Regional Weather Roundup
Issued by NWS

Home | Current Version | Previous Version | Text Only | Print | Product List | Glossary On
Versions: 1 2 3 4 5 6 7 8 9 10 11 12 13 14 15 16 17 18 19 20 21 22 23 24 25 26 27 28 29 30 31 32 33 34 35 36 37 38 39 40 41 42 43 44 45 46 47 48 49 50
000
ASUS43 KLSX 110607
RWRMO

WEATHER SUMMARY FOR MISSOURI
NATIONAL WEATHER SERVICE SPRINGFIELD MO
100 AM CDT FRI JUL 11 2014

NOTE: "FAIR" INDICATES FEW OR NO CLOUDS BELOW 12,000 FEET WITH NO
       SIGNIFICANT WEATHER AND/OR OBSTRUCTIONS TO VISIBILITY.
       CURRENT SKY AND/OR WEATHER CONDITIONS ARE NOT AVAILABLE FOR
       CHILLICOTHE AND FARMINGTON.

MOZ001>031-035>038-043-044-053-054-110700-
...NORTHERN AND WESTERN MISSOURI...

CITY           SKY/WX    TMP DP  RH WIND       PRES   REMARKS
KANSAS CTY INT CLEAR     70  64  81 SE8       30.08R
6HR MIN TEMP:  70; 6HR MAX TEMP:  81;

KANSAS C DTWN  CLEAR     74  65  73 SE8       30.07R
6HR MIN TEMP:  74; 6HR MAX TEMP:  83;

LEE`S SUMMIT   CLEAR     71  64  78 S6        30.09R
6HR MIN TEMP:  71; 6HR MAX TEMP:  80;

ST JOSEPH      CLEAR     71  66  84 SE12      30.06S
6HR MIN TEMP:  71; 6HR MAX TEMP:  81;

CHILLICOTHE      N/A     70  60  70 SE3       30.11S
6HR MIN TEMP:  70; 6HR MAX TEMP:  80;

KIRKSVILLE     CLEAR     64  59  83 SE6       30.14S
6HR MIN TEMP:  64; 6HR MAX TEMP:  78;


$$
MOZ066>068-077>081-088>096-101>105-110700-
...SOUTHWEST MISSOURI...

CITY           SKY/WX    TMP DP  RH WIND       PRES   REMARKS
SPRINGFIELD    CLEAR     69  65  86 SE8       30.11S
6HR MIN TEMP:  68; 6HR MAX TEMP:  79;

JOPLIN         CLEAR     68  66  93 SE6       30.08F
6HR MIN TEMP:  68; 6HR MAX TEMP:  80;


$$
MOZ032>034-039>042-045>050-055>058-069>072-110700-
...CENTRAL MISSOURI...

CITY           SKY/WX    TMP DP  RH WIND       PRES   REMARKS
COLUMBIA       CLEAR     67  62  84 SE7       30.13S
6HR MIN TEMP:  67; 6HR MAX TEMP:  79;

JEFFERSON CITY CLEAR     68  62  81 SE6       30.12S
6HR MIN TEMP:  68; 6HR MAX TEMP:  80;

ROLLA          CLEAR     65  62  90 SE7       30.14R
6HR MIN TEMP:  65; 6HR MAX TEMP:  78;

SEDALIA        CLEAR     69  63  81 SE7       30.12R
6HR MIN TEMP:  69; 6HR MAX TEMP:  80;

WHITEMAN AFB   CLEAR     68  60  77 SE6       30.10S
OSAGE BEACH      N/A     66  63  88 E3        30.12S VSB<1/4

$$
MOZ051-052-059>065-110700-
...EAST CENTRAL MISSOURI...

CITY           SKY/WX    TMP DP  RH WIND       PRES   REMARKS
ST LOUIS INTL  NOT AVBL
SPIRIT OF STL  CLEAR     63  60  90 CALM      30.14R
6HR MIN TEMP:  62; 6HR MAX TEMP:  81;

ST CHARLES     PTCLDY    66  58  75 E3        30.14S
6HR MIN TEMP:  64; 6HR MAX TEMP:  80;


$$
MOZ072>076-082>087-097>100-106>115-110700-
...SOUTH CENTRAL AND SOUTHEAST MISSOURI...

CITY           SKY/WX    TMP DP  RH WIND       PRES   REMARKS
CAPE GIRARDEAU CLEAR     69  66  90 NE3       30.12F
6HR MIN TEMP:  68; 6HR MAX TEMP:  81;

FARMINGTON     CLEAR     63  63 100 CALM      30.17
6HR MIN TEMP:  63; 6HR MAX TEMP:  79;

POPLAR BLUFF   CLEAR     69  65  86 CALM      30.11S
6HR MIN TEMP:  69; 6HR MAX TEMP:  80;

WEST PLAINS    CLOUDY    71  66  84 SE6       30.15S
6HR MIN TEMP:  68; 6HR MAX TEMP:  77;


$$


USA.gov is the U.S. government's official web portal to all federal, state and local government web resources and services.